COSMOS 2513

Last updated on Tue Sep 16 2025 00:02:48 GMT+0000 (Coordinated Universal Time)

1 41121U 15075A 25258.60052269 -.00000155 00000+0 00000+0 0 9999 2 41121 0.0447 105.5258 0001520 81.2435 104.4794 1.00273045 35798
UTC large
Height (km)
Speed (km/s)
/
Latitude / Longitude
Inclination (degrees)
Orbital Period (minutes)
Azimuth
Elevation
Range (km)
Doppler Factor

Next 0 passes for location: London (51.5072 / 0.1276)

Sorry there are no passes over London.